Back to catalog

CZ-6A DEB

AlivePO
NORAD 55899·DEBRIS·🇨🇳 China

Launched Nov 11, 2022 from Taiyuan Satellite Launch Center

Loading…

Next Passes (next 24 hours)

TLE

FreshSource: Space-Track

Epoch: Sep 12, 2026, 04:18 UTC

1 55899U 22151AAX 26255.17943496  .00013022  00000-0  13991-2 0  9993
2 55899  98.6234 338.4682 0048159 328.6362  31.1981 14.87850040197547

Track CZ-6A DEB in real time with AllMySat

Download on the App Store